IRIDIUM 140

Last updated on Sun Jun 21 2026 00:03:14 GMT+0000 (Coordinated Universal Time)

1 43252U 18030D 26171.41457655 .00000081 00000+0 21911-4 0 9998 2 43252 86.3961 289.0831 0002149 94.4266 265.7176 14.34218039430656
UTC large
Height (km)
Speed (km/s)
/
Latitude / Longitude
Inclination (degrees)
Orbital Period (minutes)
Azimuth
Elevation
Range (km)
Doppler Factor

Next 0 passes for location: London (51.5072 / 0.1276)

No passes found over London.
IRIDIUM 140